This demonstration page uses our WeatherBlox Daily Observations layout. Learn more.

Hourly Observations for October 4, 2019

Temp ( °F °C ) Dew Point ( °F °C ) Humidity (%) Winds ( mph kmh ) Pressure ( in mb ) Visibility ( mi km ) Precip ( " mm )
12:54 am 00:54 Clear 46 7.8 41 5 83 83 Calm 30.36 1028 10 16.09344 0 0
1:54 am 01:54 Cloudy 44 6.7 41 5 89 89 NNE 7 11 30.36 1028 10 16.09344 0 0
2:54 am 02:54 Cloudy 46 7.8 42 5.6 86 86 N 3 6 30.39 1029 10 16.09344 0 0
3:54 am 03:54 Cloudy 44 6.7 41 5 89 89 N 5 7 30.36 1028 10 16.09344 0 0
4:54 am 04:54 Cloudy 45 7.2 41 5 86 86 ENE 6 9 30.36 1028 10 16.09344 0 0
5:54 am 05:54 Cloudy 45 7.2 41 5 86 86 Calm 30.36 1028 10 16.09344 0 0
6:54 am 06:54 Mostly Clear 44 6.7 41 5 89 89 ENE 6 9 30.36 1028 10 16.09344 0 0
7:54 am 07:54 Sunny 45 7.2 41 5 86 86 E 3 6 30.39 1029 10 16.09344 0 0
8:54 am 08:54 Cloudy 47 8.3 41 5 80 80 ESE 10 17 30.39 1029 10 16.09344 0 0
9:54 am 09:54 Cloudy 48 8.9 42 5.6 80 80 ESE 9 15 30.36 1028 10 16.09344 0 0
10:54 am 10:54 Cloudy 50 10 43 6.1 77 77 ESE 13 20 30.36 1028 10 16.09344 0 0
11:54 am 11:54 Cloudy 52 11.1 44 6.7 75 75 SE 10 17 30.36 1028 10 16.09344 0.001 0.001
12:54 pm 12:54 Cloudy 52 11.1 43 6.1 72 72 ESE 15 24 30.3 1026 10 16.09344 0 0
1:54 pm 13:54 Cloudy 56 13.3 45 7.2 67 67 ESE 10 17 30.27 1025 10 16.09344 0.001 0.001
2:54 pm 14:54 Cloudy 55 12.8 44 6.7 67 67 SE 13 20 30.24 1024 10 16.09344 0 0
3:54 pm 15:54 Cloudy 55 12.8 44 6.7 67 67 SE 14 22 30.18 1022 10 16.09344 0 0
4:54 pm 16:54 Cloudy 54 12.2 46 7.8 75 75 SE 12 19 30.18 1022 10 16.09344 0.001 0.001
5:32 pm 17:32 Cloudy with Light Rain 53 11.7 46 7.8 77 77 SE 10 17 30.21 1023 10 16.09344 0.001 0.001
5:54 pm 17:54 Cloudy 53 11.7 47 8.3 80 80 SE 13 20 30.18 1022 10 16.09344 0.001 0.001
6:54 pm 18:54 Cloudy with Light Rain 52 11.1 46 7.8 80 80 SE 16 26 30.15 1021 10 16.09344 0.001 0.001
7:54 pm 19:54 Cloudy 52 11.1 46 7.8 80 80 SE 13 20 30.12 1020 10 16.09344 0.001 0.001
8:01 pm 20:01 Cloudy 52 11.1 47 8.3 83 83 SE 13 20 30.18 1022 10 16.09344 0 0
8:16 pm 20:16 Cloudy 52 11.1 47 8.3 83 83 SE 13 20 30.15 1021 10 16.09344 0 0
8:49 pm 20:49 Cloudy with Light Rain 52 11 46 8 82 82 SE 15 24 30.15 1021 10 16.09344 0.001 0.001
8:54 pm 20:54 Mostly Cloudy with Light Rain 52 11.1 47 8.3 83 83 SE 15 24 30.09 1019 10 16.09344 0.001 0.001
9:21 pm 21:21 Cloudy 52 11.1 48 8.9 86 86 SE 13 20 30.09 1019 10 16.09344 0.001 0.001
9:28 pm 21:28 Cloudy 53 11.7 48 8.9 83 83 SE 12 19 30.09 1019 10 16.09344 0.001 0.001
9:41 pm 21:41 Cloudy with Light Rain 53 11.7 48 8.9 83 83 SSE 9 15 30.09 1019 10 16.09344 0.001 0.001
9:45 pm 21:45 Cloudy with Nearby Thunderstorms 53 11.7 48 8.9 83 83 SSE 8 13 30.09 1019 10 16.09344 0.001 0.001
9:54 pm 21:54 Cloudy with Nearby Thunderstorms 53 11.7 48 8.9 83 83 SW 8 13 30.12 1020 10 16.09344 0.001 0.001
10:02 pm 22:02 Cloudy with Light Thunderstorms 53 11.7 48 8.9 83 83 Calm 30.09 1019 10 16.09344 0.001 0.001
10:18 pm 22:18 Cloudy with Nearby Thunderstorms 53 11.7 48 8.9 83 83 SE 15 24 30.06 1018 10 16.09344 0.03 0.762
10:27 pm 22:27 Cloudy with Light Rain 53 11.7 48 8.9 83 83 SE 15 24 30.06 1018 10 16.09344 0.03 0.762
10:38 pm 22:38 Cloudy with Light Rain 53 11.7 49 9.4 86 86 SE 13 20 30.06 1018 10 16.09344 0.04 1.016
10:45 pm 22:45 Cloudy with Light Rain 53 11.7 49 9.4 86 86 SE 14 22 30.06 1018 10 16.09344 0.05 1.27
10:54 pm 22:54 Cloudy with Light Rain 53 11.7 49 9.4 86 86 SE 15 24 30.03 1017 10 16.09344 0.05 1.27
11:54 pm 23:54 Cloudy 54 12.2 50 10 87 87 SSE 12 19 30 1016 10 16.09344 0.001 0.001

Powered by AerisWeather